Header for Extended Forecast Station List Page

Search by: ID | Name | Date | Parm | Value | Avg | % Avg
Sort by: ID | Name | Date | Parm | Value | Avg | % Avg

Enter search or view all records.

Click on id for station plot
#IDNameDateParmValueAvg% Avg
0BULO3BULLY CREEK-BULLY CREEK DAM02-12-2018INFLOW (KAF)7983
1RIDI1WILLOW CREEK-RIRIE DAM02-12-2018INFLOW (KAF)274265
2BERO3MALHEUR-AGENCY VALLEY DAM02-12-2018INFLOW (KAF)305258
3LWRI1LITTLE WOOD-LITTLE WOOD DAM02-12-2018INFLOW (KAF)436468
4WRMO3MALHEUR-WARM SPRINGS DAM02-12-2018INFLOW (KAF)437458
5MYKO3MCKAY CREEK-NEAR PILOT ROCK02-12-2018DISCHARGE (KAF)4537120
6VALO3MALHEUR-NEAR VALE02-12-2018DISCHARGE (KAF)466473
7DLGM8CLARK FORK-AT DEER LODGE02-12-2018DISCHARGE (KAF)707890
8PIHI1PORTNEUF-AT POCATELLO02-12-2018DISCHARGE (KAF)7610275
9MACI1BIG LOST-MACKAY RESERVOIR NEAR MACKAY02-12-2018INFLOW (KAF)8784104
10GIBO3UMATILLA-NEAR GIBBON02-12-2018DISCHARGE (KAF)9184108
11BUDW1BUMPING-BUMPING LAKE DAM02-12-2018INFLOW (KAF)9786113
12HWRI1BIG LOST-AT HOWELL RANCH NEAR CHILLY02-12-2018DISCHARGE (KAF)10084120
13KADW1KACHESS-KACHESS DAM02-12-2018INFLOW (KAF)10196105
14DEDI1DEADWOOD-NEAR LOWMAN02-12-2018INFLOW (KAF)10195106
15HOTI1BRUNEAU-NEAR HOT SPRINGS02-12-2018DISCHARGE (KAF)10315766
16KEDW1YAKIMA-KEECHELUS LAKE02-12-2018INFLOW (KAF)117101116
17EASW1YAKIMA-AT EASTON02-12-2018DISCHARGE (KAF)122100122
18ARDW1ENTIAT-NEAR ARDENVOIR02-12-2018DISCHARGE (KAF)144122119
19MAGI1BIG WOOD-MAGIC DAM02-12-2018INFLOW (KAF)15319479
20TNAW1TEANAWAY-BELOW FORKS02-12-2018DISCHARGE (KAF)156131119
21RILW1TIETON-RIMROCK LAKE NEAR RIMROCK02-12-2018INFLOW (KAF)165146113
22HALI1BIG WOOD-AT HAILEY02-12-2018DISCHARGE (KAF)167144116
23SATI1ST MARIES-NEAR SANTA02-12-2018DISCHARGE (KAF)173150115
24UMAO3UMATILLA-NEAR UMATILLA02-12-2018DISCHARGE (KAF)187156120
25OWYO3OWYHEE-OWYHEE DAM02-12-2018INFLOW (KAF)19036252
26IPDI1HENRYS FORK-ISLAND PARK DAM02-12-2018INFLOW (KAF)198171116
27PDTO3UMATILLA-AT PENDLETON02-12-2018DISCHARGE (KAF)213192111
28RCCM8ROCK CREEK-NEAR CLINTON02-12-2018DISCHARGE (KAF)239168142
29TCHW1WALLA WALLA-NEAR TOUCHET02-12-2018DISCHARGE (KAF)244200122
30TEAI1TETON-NEAR ST. ANTHONY02-12-2018DISCHARGE (KAF)264227116
31DRMM8CLARK FORK-NR DRUMMOND02-12-2018DISCHARGE (KAF)265MM
32HODO3HOOD-NEAR TUCKER BRIDGE02-12-2018DISCHARGE (KAF)26628095
33STRM8ST. REGIS-NEAR ST. REGIS02-12-2018DISCHARGE (KAF)278225124
34CLUW1CLE ELUM-CLE ELUM LAKE02-12-2018INFLOW (KAF)310293106
35BIGI1BOISE-AT GLENWOOD BRIDGE02-12-2018DISCHARGE (KAF)31033393
36CHEI1FALL RIVER-NEAR CHESTER02-12-2018DISCHARGE (KAF)313263119
37WSRI1WEISER-NEAR WEISER02-12-2018DISCHARGE (KAF)32643275
38CLFW1NACHES-NEAR CLIFFDEL02-12-2018DISCHARGE (KAF)351301117
39ARAI1SF BOISE-ANDERSON RANCH DAM02-12-2018INFLOW (KAF)35240986
40PARI1BOISE-NEAR PARMA02-12-2018DISCHARGE (KAF)35441086
41UNDW1WHITE SALMON-NEAR UNDERWOOD02-12-2018DISCHARGE (KAF)357357100
42CSDI1NF PAYETTE-CASCADE DAM02-12-2018INFLOW (KAF)38641094
43PITW1KLICKITAT-NEAR PITT02-12-2018DISCHARGE (KAF)48553092
44MONO3NF JOHN DAY-AT MONUMENT02-12-2018DISCHARGE (KAF)50962082
45NACW1NACHES-NEAR NACHES02-12-2018DISCHARGE (KAF)543380143
46JLKW4SNAKE-JACKSON LAKE AT DAM02-12-2018INFLOW (KAF)634457139
47ANTI1HENRYS FORK-AT ST. ANTHONY02-12-2018DISCHARGE (KAF)655577113
48SERO3JOHN DAY-AT SERVICE CK02-12-2018DISCHARGE (KAF)66289774
49UMTW1YAKIMA-AT UMTANUM02-12-2018DISCHARGE (KAF)682606113
50PATW1METHOW-NEAR PATEROS02-12-2018DISCHARGE (KAF)685568121
51CHDW1CHELAN-LAKE CHELAN DAM02-12-2018INFLOW (KAF)693629110
52REXI1HENRYS FORK-AT REXBURG02-12-2018DISCHARGE (KAF)745670111
53PRTI1PRIEST-NEAR PRIEST RIVER02-12-2018DISCHARGE (KAF)756659115
54PARW1YAKIMA-NEAR PARKER02-12-2018DISCHARGE (KAF)779650120
55LUCI1BOISE-LUCKY PEAK DAM02-12-2018INFLOW (KAF)841MM
56EMMI1PAYETTE-NEAR EMMETT02-12-2018DISCHARGE (KAF)967104193
57MILI1SNAKE-AT MILNER02-12-2018DISCHARGE (KAF)990672147
58BONM8BLACKFOOT-NEAR BONNER02-12-2018DISCHARGE (KAF)992570174
59KIOW1YAKIMA-AT KIONA02-12-2018DISCHARGE (KAF)10271024100
60BITM8BITTERROOT-NEAR MISSOULA02-12-2018DISCHARGE (KAF)1053838126
61PESW1WENATCHEE-AT PESHASTIN02-12-2018DISCHARGE (KAF)1111984113
62JKSW4SNAKE-NEAR JACKSON02-12-2018DISCHARGE (KAF)1171838140
63TONW1OKANOGAN-NEAR TONASKET02-12-2018DISCHARGE (KAF)11721033113
64TRYO3GRANDE RONDE-TROY02-12-2018DISCHARGE (KAF)11891188100
65WGCM8MF FLATHEAD-NEAR WEST GLACIER02-12-2018DISCHARGE (KAF)12591005125
66LAUW1KETTLE-AT LAURIER02-12-2018DISCHARGE (KAF)1308132499
67FCFM8NF FLATHEAD-NEAR COLUMBIA FALLS02-12-2018DISCHARGE (KAF)13161041126
68MODO3DESCHUTES-AT MOODY NR BIGGS02-12-2018DISCHARGE (KAF)1472155195
69ALPW4SNAKE-NEAR ALPINE02-12-2018DISCHARGE (KAF)14971114134
70ABOM8CLARK FORK-ABOVE MISSOULA02-12-2018DISCHARGE (KAF)15821047151
71HHWM8SF FLATHEAD-HUNGRY HORSE DAM02-12-2018INFLOW (KAF)17461366128
72PLDI1SF SNAKE-PALISADES DAM02-12-2018INFLOW (KAF)22071748126
73BFTI1SNAKE-NEAR BLACKFOOT02-12-2018DISCHARGE (KAF)24811539161
74SNAI1SNAKE-AT BLACKFOOT02-12-2018DISCHARGE (KAF)24981548161
75BELM8CLARK FORK-BELOW MISSOULA02-12-2018DISCHARGE (KAF)26351904138
76SHYI1SNAKE-NEAR SHELLEY02-12-2018DISCHARGE (KAF)27651784155
77HEII1SNAKE-NEAR HEISE02-12-2018DISCHARGE (KAF)27671725160
78SWAI1SNAKE-BELOW SWAN FALLS02-12-2018DISCHARGE (KAF)28052694104
79SIFI1SNAKE-AB EAGLE ROCK NR IDAHO FALLS02-12-2018DISCHARGE (KAF)28691773162
80DWRI1NF CLEARWATER-DWORSHAK DAM02-12-2018INFLOW (KAF)29382439120
81AFRI1SNAKE-AMERICAN FALLS RESERVOIR02-12-2018INFLOW (KAF)30582220138
82COEI1COEUR D ALENE-COEUR D ALENE LAKE02-12-2018INFLOW (KAF)31812774115
83SPOW1SPOKANE-AT SPOKANE02-12-2018DISCHARGE (KAF)3229MM
84LYDM8KOOTENAI-LIBBY DAM02-12-2018INFLOW (KAF)33313205104
85SRGM8CLARK FORK-AT ST REGIS02-12-2018DISCHARGE (KAF)33822608130
86LLKW1SPOKANE-AT LONGLAKE02-12-2018INFLOW (KAF)35663327107
87CFMM8FLATHEAD-AT COLUMBIA FALLS02-12-2018DISCHARGE (KAF)38192938130
88LEOI1KOOTENAI-AT LEONIA02-12-2018DISCHARGE (KAF)41283378122
89WHBI1SALMON-AT WHITEBIRD02-12-2018DISCHARGE (KAF)43123917110
90ORFI1CLEARWATER-AT OROFINO02-12-2018DISCHARGE (KAF)44633807117
91KERM8FLATHEAD-KERR DAM02-12-2018INFLOW (KAF)45013733121
92WEII1SNAKE-AT WEISER02-12-2018DISCHARGE (KAF)4752528290
93BRNI1SNAKE-BROWNLEE DAM02-12-2018INFLOW (KAF)5181570791
94SPDI1CLEARWATER-AT SPALDING02-12-2018DISCHARGE (KAF)69516013116
95NOXM8CLARK FORK-NOXON RAPIDS DAM02-12-2018INFLOW (KAF)77716928112
96CABI1CLARK FORK-CABINET GORGE DAM02-12-2018INFLOW (KAF)86027268118
97ALFW1PEND OREILLE-ALBENI FALLS DAM02-12-2018INFLOW (KAF)99978798114
98ANAW1SNAKE-NEAR ANATONE02-12-2018DISCHARGE (KAF)104301173289
99LGDW1SNAKE-LOWER GRANITE DAM02-12-2018INFLOW (KAF)173801776298
100LGSW1SNAKE-LITTLE GOOSE DAM02-12-2018INFLOW (KAF)173801779298
101LMNW1SNAKE-LOWER MONUMENTAL DAM02-12-2018INFLOW (KAF)177521803198
102IHDW1SNAKE-ICE HARBOR DAM02-12-2018INFLOW (KAF)177521788199
103CIBW1COLUMBIA-AT INTL BOUNDARY02-12-2018DISCHARGE (KAF)24923MM
104GCDW1COLUMBIA-GRAND COULEE DAM02-12-2018INFLOW (KAF)2991328033107
105CHJW1COLUMBIA-CHIEF JOSEPH DAM02-12-2018INFLOW (KAF)3019527019112
106WELW1COLUMBIA-WELLS DAM02-12-2018INFLOW (KAF)3202428669112
107RRHW1COLUMBIA-ROCKY REACH DAM02-12-2018INFLOW (KAF)3252229102112
108PRWW1COLUMBIA-PRIEST RAPIDS DAM02-12-2018INFLOW (KAF)3369330412111
109WANW1COLUMBIA-WANAPUM DAM02-12-2018INFLOW (KAF)3370029913113
110MCDW1COLUMBIA-MCNARY DAM02-12-2018INFLOW (KAF)5256050349104
111JDAO3COLUMBIA-JOHN DAY DAM02-12-2018INFLOW (KAF)5467252950103
112TDAO3COLUMBIA-THE DALLES DAM02-12-2018INFLOW (KAF)5513252062106
113BONO3COLUMBIA-BONNEVILLE DAM02-12-2018INFLOW (KAF)5622654527103
114BFEI1KOOTENAI-AT BONNERS FERRY02-12-2018STAGE (FT)MMM
115HOPI1PEND OREILLE-PEND OREILLE LAKE NR HOPE02-12-2018LAKE ELEVATION (FT)MMM
116SJMI1ST JOE-AT ST MARIES02-12-2018STAGE (FT)MMM